Regional Weather Roundup
Issued by NWS

Home | Current Version | Previous Version | Text Only | Print | Product List | Glossary On
Versions: 1 2 3 4 5 6 7 8 9 10 11 12 13 14 15 16 17 18 19 20 21 22 23 24 25 26 27 28 29 30 31 32 33 34 35 36 37 38 39 40 41 42 43 44 45 46 47 48 49 50
000
ASUS43 KIND 231610
RWRIN

WEATHER ROUNDUP FOR INDIANA
NATIONAL WEATHER SERVICE INDIANAPOLIS IN
1200 PM EDT MON OCT 23 2017

NOTE: "FAIR" INDICATES FEW OR NO CLOUDS BELOW 12,000 FEET WITH NO
SIGNIFICANT WEATHER AND/OR OBSTRUCTIONS TO VISIBILITY.

* - STATION DOES NOT REPORT WEATHER SUCH AS PRECIPITATION OR FOG.

+ - STATION NOT QUALITY CONTROLLED BY THE NATIONAL WEATHER SERVICE.
    USE DATA WITH CAUTION...ESPECIALLY DEWPOINT AND RELATIVE
    HUMIDITY OBSERVATIONS.

INZ001>003-010>013-019-020-231700-
NORTHWEST INDIANA

CITY           SKY/WX    TMP DP  RH WIND       PRES   REMARKS
GARY /AIRPORT/ RAIN      57  55  94 N12G23    29.79F
KNOX *+        CLOUDY    54  54 100 N12       29.73F
LA PORTE +     RAIN      55  53  95 NE14G20   29.76F
MICHIGAN CITY+ RAIN      54  54 100 NE12G22   29.77F
MONTICELLO +   RAIN      55  54  95 N9        29.70F
RENSSELAER +   HVY RAIN  55  52  88 N8        29.74F
VALPARAISO     RAIN      56  55  97 N12G22    29.75F FOG

$$

LMZ046-743>745-231700-
SOUTHERN LAKE MICHIGAN

STATION/POSITION TIME  TEMP    WIND        PRES    WAVE
                       AIR SEA DIR/SP/G            HT
                 (UTC) (F)     (DEG/KT/KT) (MB)    (FT)
BURNS HARBOR     1540   56      30/ 21/ 23 1008.1F
MICHIGAN CITY    1540   55      10/ 24/ 26   N/A
5NW MICH CITY    1600   56 57   20/ 17/ 23   N/A     8

$$

INZ004-005-014>016-021>024-231700-
NORTH CENTRAL INDIANA

CITY           SKY/WX    TMP DP  RH WIND       PRES   REMARKS
ELKHART        RAIN      55  55 100 N5        29.74F
GOSHEN         LGT RAIN  61  57  87 CALM      29.73S FOG
LOGANSPORT +   RAIN      59  59 100 E3        29.69F
PERU/GRISSOM   LGT RAIN  61  61 100 SE10      29.68F FOG
SOUTH BEND     LGT RAIN  53  53 100 N13       29.75F FOG
WARSAW +       RAIN      61  57  88 SE3       29.72F

$$

INZ006>009-017-018-025>027-231700-
NORTHEAST INDIANA

CITY           SKY/WX    TMP DP  RH WIND       PRES   REMARKS
AUBURN +       CLOUDY    63  55  77 E5        29.75F
FORT WAYNE     LGT RAIN  64  57  78 SE10      29.72F
HUNTINGTON +   DRIZZLE   61  59  92 SE7       29.72F
KENDALLVILLE + CLOUDY    60  57  89 SE10      29.74F

$$

INZ028-029-035-036-043>045-051>053-231700-
WEST CENTRAL INDIANA

CITY           SKY/WX    TMP DP  RH WIND       PRES   REMARKS
CRAWFORDSVL +  RAIN      55  55 100 NW16      29.70
GREENCASTLE +  CLOUDY    59  57  94 SW5       29.70F
LAFAYETTE      RAIN      56  56 100 N17G24    29.69F FOG
TERRE HAUTE    CLOUDY    56  54  93 NW9G17    29.74R FOG

$$

INZ030>032-037>040-046>048-054>057-064-065-231700-
CENTRAL INDIANA

CITY           SKY/WX    TMP DP  RH WIND       PRES   REMARKS
ANDERSON       CLOUDY    63  57  82 MISG      29.73F
CP ATTERBURY + CLOUDY    63  59  88 S5        29.74R
COLUMBUS       LGT RAIN  63  59  88 SE6       29.74F
FISHERS *+     CLOUDY    61  61 100 S10       29.70F
FRANKFORT +    RAIN      64  63  96 SW3       29.69F
GREENWOOD *+   CLOUDY    65  61  86 S6        29.72F
INDIANAPOLIS   CLOUDY    63  59  87 S10       29.70F
-EAGLE CREEK   CLOUDY    63  59  87 S6        29.68F
KOKOMO +       LGT RAIN  61  60  97 SE10      29.69F
MARION +       CLOUDY    63  59  88 SE14      29.71F FOG
MT COMFORT *+  CLOUDY    63  61  94 S9G17     29.72F
SHELBYVILLE    CLOUDY    65  58  78 S13       29.72F
ZIONSVILLE +   RAIN      62  60  94 S13       29.69F

$$

INZ033-034-041-042-049-050-058-059-231700-
EAST CENTRAL INDIANA

CITY           SKY/WX    TMP DP  RH WIND       PRES   REMARKS
MUNCIE         CLOUDY    65  59  81 S8        29.71F
RICHMOND +     CLOUDY    59  59 100 S12       29.77F

$$

INZ060-061-067>069-081>083-085>088-231700-
SOUTHWEST INDIANA

CITY           SKY/WX    TMP DP  RH WIND       PRES   REMARKS
EVANSVILLE     CLOUDY    55  53  93 W9        29.82R FOG
HUNTINGBURG +  CLOUDY    54  53  97 SW8       29.80R
WASHINGTON +   CLOUDY    55  53  94 W5        29.77R

$$

INZ062-063-066-070>080-084-089>092-231700-
SOUTH CENTRAL AND SOUTHEAST INDIANA

CITY           SKY/WX    TMP DP  RH WIND       PRES   REMARKS
BEDFORD +      LGT RAIN  57  55  94 SW13      29.78R
BLOOMINGTON    CLOUDY    59  55  87 SW9       29.75R
MADISON *+     CLOUDY    61  59  94 E3        29.78F
NORTH VERNON + DRIZZLE   61  57  88 S3        29.75F
SEYMOUR +      LGT RAIN  63  59  88 S6        29.74F

$$




USA.gov is the U.S. government's official web portal to all federal, state and local government web resources and services.